Regional Weather Roundup
Issued by NWS Charleston, SC

Current Version | Previous Version | Graphics & Text | Print | Product List | Glossary On
Versions: 1 2 3 4 5 6 7 8 9 10 11 12 13 14 15 16 17 18 19 20 21 22 23 24 25 26 27 28 29 30 31 32 33 34 35 36 37 38 39 40 41 42 43 44 45 46 47 48 49 50
512
ASUS42 KCHS 250312
RWRCHS

REGIONAL WEATHER ROUNDUP
NATIONAL WEATHER SERVICE CHARLESTON SC
1000 PM EST FRI NOV 24 2017

NOTE: "FAIR" INDICATES FEW OR NO CLOUDS BELOW 12,000 FEET WITH NO
SIGNIFICANT WEATHER AND/OR OBSTRUCTIONS TO VISIBILITY.

NOT ALL STATIONS ARE QUALITY CONTROLLED. USE DATA WITH CAUTION...
ESPECIALLY DEWPOINT OBSERVATIONS.

SCZ027-030-031-034>040-042>050-250400-
...SOUTHEAST SOUTH CAROLINA...

CITY           SKY/WX    TMP DP  RH WIND       PRES   REMARKS
N CHARLESTON   CLEAR     45  41  86 N6        29.96R
WATERFRONT PRK   N/A     55  40  56 N6        29.81R
JOHNS ISLAND   FAIR      48  43  81 CALM      29.96R
PINOPOLIS        N/A     55  45  67 N7        29.88R
MONCKS CORNER  FAIR      43  41  93 CALM      29.96S
SUMMERVILLE    FAIR      43  41  93 CALM      29.98R
BEAUFORT MCAS  NOT AVBL
BEAUFORT ARPT  FAIR      50  43  76 NW5       29.97R
HILTON HEAD IS CLEAR     50  45  81 CALM      29.98R
WALTERBORO     CLEAR     39  37  93 CALM      29.98S
ALLENDALE      FAIR      39  39 100 CALM      29.98S

...SOUTHERN MIDLANDS AND PEE DEE...

CITY           SKY/WX    TMP DP  RH WIND       PRES   REMARKS
GEORGETOWN     FAIR      46  36  66 CALM      29.96R
KINGSTREE      FAIR      37  37 100 CALM      29.97R
ORANGEBURG     CLEAR     41  39  93 CALM      29.98S
BARNWELL         N/A     37  36  93 CALM      29.99R
AIKEN          FAIR      36  34  93 CALM      30.01F
MANNING        FAIR      37  37 100 MISG      29.97S
COLUMBIA       CLEAR     40  38  93 CALM      29.98S
SUMTER         CLEAR     42  35  76 CALM      29.95S
FLORENCE       CLEAR     40  33  76 N3        29.97F
MYRTLE BEACH   CLOUDY    51  35  54 N8        29.96S
N MYRTLE BEACH MOCLDY    51  34  52 N7        29.94S

$$

GAZ063-065-086>088-099>101-113>116-118-119-134>141-150-250400-
...SOUTHEAST GEORGIA...

CITY           SKY/WX    TMP DP  RH WIND       PRES   REMARKS
SAVANNAH ARPT  CLEAR     46  43  89 CALM      29.98F
HUNTER AAF     CLEAR     48  40  74 CALM      29.95S
FORT STEWART   CLEAR     44  40  88 CALM      29.97R
STATESBORO     CLEAR     40  40 100 CALM      29.99S
SYLVANIA       CLEAR     41  40  98 CALM      30.00S
CLAXTON        FAIR      42  41  97 CALM      30.00R

...CSRA...CENTRAL AND FAR SOUTHEAST GEORGIA...

CITY           SKY/WX    TMP DP  RH WIND       PRES   REMARKS
THOMSON        CLEAR     37  35  94 CALM      30.04S
AUGUSTA-BUSH   CLEAR     37  36  96 CALM      29.99S
AUGUSTA-DANIEL CLEAR     51  38  60 CALM      29.99S
SWAINSBORO     FAIR      39  39 100 CALM      30.00S
VIDALIA        CLEAR     45  41  87 CALM      29.99F
EASTMAN        FAIR      41  34  76 CALM      30.02S
HAZLEHURST     FAIR      45  41  86 CALM      29.99S
ALMA           CLEAR     43  41  93 CALM      29.99R
WAYCROSS       CLEAR     46  43  90 CALM      30.00R
JESUP          FAIR      45  41  87 CALM      29.99S
BAXLEY         FAIR      41  41 100 CALM      29.99S
BRUNSWICK      FOG       45  43  93 CALM      29.99S VSB 1
SAINT SIMONS   CLEAR     51  47  86 CALM      29.98R

$$

SCZ027-028-034-036>038-045-046-048>050-GAZ119-141-250400-
...LAKE AND SUPPLEMENTAL COASTAL OBSERVATIONS...

STATION/POSITION TIME  TEMP    WIND        PRES    WAVE   SWELL
                       AIR SEA DIR/SP/G            HT/PER HT/PER/DIR
                 (UTC) (F)     (DEG/KT/KT) (MB)    (FT/S) (FT/S/D)
WINYAH BAY       0145   49     330/  5     1014.0
LAKE MURRAY      0220   49      CALM  /  2 1014.6
ACE BASIN NERRS  0145   51        CALM     1014.0
FORT PULASKI     0248   52 60  350/  4/  5 1015.2R
SAPELO ISLAND    0200   51      20/  3     1015.0

$$

ANZ835-935-AMZ111-154-330-350-352-354-370-450-454-472-250400-
...C-MAN AND BUOY OBSERVATIONS...

STATION/POSITION TIME  TEMP    WIND        PRES    WAVE   SWELL
                       AIR SEA DIR/SP/G            HT/PER HT/PER/DIR
                 (UTC) (F)     (DEG/KT/KT) (MB)    (FT/S) (FT/S/D)
BUOY 41004       0250   62 74   10/ 16/ 21 1012.9R   7/10   5/110/10
BUOY 41008       0250   62 65  340/ 12/ 14 1014.5R   4/10   3/100/10
FOLLY BEACH CMAN 0200   55     360/  5/  7 1014.4F
CAPERS NEARSHORE 0208   53 60   20/ 10/ 14 1013.6S
FRIPP NEARSHORE  0208   55 61  340/ 12/ 17 1013.4R


STATION/POSITION TIME  TEMP    WIND        PRES    WAVE   SWELL
                       AIR SEA DIR/SP/G            HT/PER HT/PER/DIR
                 (UTC) (F)     (DEG/KT/KT) (MB)    (FT/S) (FT/S/D)
5E ST. MARYS GA  0230      66                N/A     5/10   2/ 90/11
FRYING PAN BUOY  0250   62 72   20/ 19/ 23 1011.9F   7/ 9   5/120/ 9
BUOY 41025       0300   66 70   10/ 16/ 19 1012.2
CAPE LOOKOUT NC  0200           10/ 11/ 14 1013.3F
BUOY 41002       0250   71 76  110/ 10/ 12 1009.5F   9/ 8   8/ 40/ 8
BUOY 41010       NOT AVBL
ST AUGUSTINE FL  0300   58 66  280/  3/  4 1015.6R


$$




USA.gov is the U.S. government's official web portal to all federal, state and local government web resources and services.